Blattenbach Aussen Messungen

Zurück zum Überblick

Zeitpunkt Temperatur Temperatur Kabelsensor Luftfeuchte
20.11.2018 14:00:55 3,5 C 6,5 C 73,0%
20.11.2018 13:53:58 3,5 C 6,5 C 72,0%
20.11.2018 13:46:55 3,5 C 6,5 C 73,0%
20.11.2018 13:39:58 3,7 C 6,5 C 72,0%
20.11.2018 13:32:56 3,9 C 6,5 C 72,0%
20.11.2018 13:25:55 3,9 C 6,5 C 72,0%
20.11.2018 13:18:57 3,9 C 6,5 C 72,0%
20.11.2018 13:11:54 3,9 C 6,4 C 72,0%
20.11.2018 13:04:55 4,1 C 6,4 C 72,0%
20.11.2018 12:57:56 4,0 C 6,4 C 72,0%
20.11.2018 12:50:57 4,0 C 6,4 C 72,0%
20.11.2018 12:43:57 4,1 C 6,4 C 72,0%
20.11.2018 12:36:56 4,1 C 6,4 C 72,0%
20.11.2018 12:29:54 4,0 C 6,4 C 72,0%
20.11.2018 12:22:55 3,9 C 6,4 C 72,0%
20.11.2018 12:15:54 3,9 C 6,4 C 73,0%
20.11.2018 12:08:55 4,0 C 6,3 C 73,0%
20.11.2018 12:01:57 3,9 C 6,3 C 73,0%
20.11.2018 11:54:56 4,0 C 6,3 C 73,0%
20.11.2018 11:47:56 4,0 C 6,3 C 73,0%
20.11.2018 11:40:55 4,2 C 6,3 C 73,0%
20.11.2018 11:33:56 4,3 C 6,3 C 73,0%
20.11.2018 11:26:55 4,2 C 6,3 C 73,0%
20.11.2018 11:19:57 4,2 C 6,2 C 74,0%
20.11.2018 11:12:58 4,1 C 6,2 C 74,0%
20.11.2018 11:05:55 3,6 C 6,2 C 75,0%
20.11.2018 10:58:55 3,4 C 6,2 C 75,0%
20.11.2018 10:51:56 3,2 C 6,2 C 75,0%
20.11.2018 10:44:57 3,0 C 6,2 C 75,0%
20.11.2018 10:37:54 2,9 C 6,2 C 75,0%
20.11.2018 10:30:58 3,0 C 6,2 C 76,0%
20.11.2018 10:23:54 3,0 C 6,2 C 76,0%
20.11.2018 10:16:56 2,9 C 6,1 C 76,0%
20.11.2018 10:09:55 2,8 C 6,1 C 76,0%
20.11.2018 10:02:55 2,7 C 6,1 C 77,0%
20.11.2018 09:55:54 2,5 C 6,1 C 77,0%
20.11.2018 09:48:55 2,1 C 6,1 C 78,0%
20.11.2018 09:41:58 1,7 C 6,1 C 78,0%
20.11.2018 09:34:55 1,2 C 6,1 C 79,0%
20.11.2018 09:27:55 0,9 C 6,1 C 79,0%
20.11.2018 09:20:41 0,7 C 6,1 C 79,0%
20.11.2018 09:13:40 0,7 C 6,1 C 79,0%
20.11.2018 09:06:39 0,8 C 6,0 C 79,0%
20.11.2018 08:59:42 0,8 C 6,0 C 79,0%
20.11.2018 08:52:41 0,7 C 6,0 C 79,0%
20.11.2018 08:45:40 0,8 C 6,0 C 79,0%
20.11.2018 08:38:42 0,8 C 6,0 C 80,0%
20.11.2018 08:31:41 0,7 C 6,0 C 80,0%
20.11.2018 08:24:41 0,6 C 6,0 C 80,0%
20.11.2018 08:17:39 0,5 C 6,0 C 80,0%